Total_Precipitation_Accumulation
0.87 0.93 0.92 0.97 1.06 1.35 1.56 1.50 1.32 1.31 1.34 1.30 1.20 1.26 1.41 1.55 1.64 1.73 1.79 1.82 1.83 1.94 1.89 1.83 1.89 1.99 2.21 2.14 2.09 2.01 1.89 1.76 1.63 1.41 1.06 0.80 0.78 0.74 0.66 0.53 0.41 0.35 0.27
0.70 0.77 0.84 0.85 0.94 1.07 1.18 1.21 1.14 1.06 1.02 1.06 1.09 1.09 1.17 1.33 1.41 1.43 1.48 1.54 1.59 1.68 1.73 1.67 1.67 1.74 1.86 2.04 2.09 2.03 1.98 1.87 1.76 1.63 1.31 0.97 0.79 0.75 0.70 0.65 0.51 0.41 0.34
0.64 0.69 0.77 0.79 0.82 0.84 0.85 0.78 0.81 0.84 0.89 0.93 1.05 1.09 1.17 1.23 1.37 1.39 1.35 1.33 1.38 1.43 1.53 1.58 1.61 1.65 1.66 1.76 1.73 1.78 1.85 1.93 1.93 1.76 1.54 1.25 1.02 0.85 0.76 0.71 0.61 0.54 0.44
0.74 0.81 0.86 0.87 0.87 0.87 0.85 0.80 0.80 0.82 0.87 0.97 1.14 1.21 1.22 1.22 1.21 1.26 1.30 1.28 1.21 1.18 1.21 1.24 1.34 1.46 1.49 1.62 1.58 1.54 1.64 1.79 1.99 1.94 1.75 1.44 1.22 1.05 0.91 0.86 0.86 0.76 0.63
0.65 0.77 0.83 0.86 0.87 0.84 0.77 0.75 0.79 0.76 0.74 0.88 1.04 1.20 1.24 1.21 1.16 1.22 1.27 1.29 1.23 1.11 1.06 1.07 1.09 1.22 1.45 1.52 1.43 1.54 1.65 1.67 1.77 1.82 1.78 1.60 1.36 1.15 0.95 0.86 0.85 0.89 0.80
0.55 0.65 0.81 0.87 0.80 0.76 0.69 0.68 0.70 0.69 0.66 0.75 0.89 1.06 1.14 1.12 1.49 1.46 1.29 1.28 1.24 1.11 1.01 1.00 0.95 0.95 1.15 1.40 1.47 1.51 1.63 1.71 1.71 1.66 1.64 1.51 1.36 1.24 1.16 1.06 0.94 0.85 0.87
0.48 0.60 0.80 0.81 0.70 0.65 0.71 0.75 0.71 0.69 0.70 0.74 0.78 0.80 0.89 1.17 1.20 1.00 1.03 1.06 1.15 1.08 0.95 0.86 0.76 0.73 0.87 0.96 1.07 1.14 1.33 1.61 1.73 1.66 1.50 1.40 1.40 1.30 1.21 1.11 1.01 0.92 0.88
0.41 0.50 0.65 0.68 0.66 0.69 0.70 0.68 0.63 0.59 0.57 0.61 0.63 0.67 0.74 0.88 0.88 0.82 0.90 0.85 0.97 0.96 0.88 0.81 0.77 0.73 0.79 0.86 0.96 1.05 1.10 1.19 1.35 1.32 1.24 1.25 1.30 1.31 1.24 1.18 1.17 1.12 1.03
0.28 0.37 0.46 0.50 0.54 0.57 0.56 0.56 0.52 0.49 0.50 0.52 0.56 0.63 0.71 0.71 0.74 0.71 0.76 0.86 0.99 0.94 0.83 0.83 0.79 0.77 0.92 0.98 0.93 0.95 1.06 1.10 1.21 1.28 1.39 1.40 1.27 1.17 1.16 1.13 1.16 1.16 1.14
0.20 0.27 0.34 0.37 0.41 0.43 0.48 0.51 0.51 0.48 0.46 0.46 0.48 0.53 0.61 0.64 0.76 0.63 0.71 0.88 0.99 0.99 0.94 0.85 0.93 0.92 1.02 0.99 0.92 0.98 1.08 0.97 0.91 0.96 1.03 1.08 0.97 0.91 0.97 0.93 1.00 1.04 0.98
0.11 0.16 0.23 0.30 0.38 0.45 0.51 0.52 0.55 0.52 0.47 0.46 0.53 0.55 0.54 0.64 0.76 0.70 0.72 0.79 0.98 1.00 1.01 0.97 0.86 0.92 0.90 0.94 1.00 1.05 1.20 1.03 0.88 0.92 1.00 1.00 0.90 0.83 0.81 0.84 0.89 0.94 0.91
0.06 0.11 0.18 0.26 0.33 0.42 0.51 0.54 0.54 0.54 0.53 0.54 0.56 0.59 0.57 0.56 0.63 0.66 0.67 0.73 0.84 0.87 0.95 0.91 0.82 0.84 0.72 0.75 0.81 0.94 1.17 1.06 0.87 0.91 0.97 0.98 0.91 0.85 0.83 0.80 0.81 0.82 0.81
0.03 0.06 0.11 0.15 0.19 0.25 0.33 0.41 0.47 0.51 0.53 0.54 0.58 0.66 0.68 0.61 0.65 0.74 0.60 0.57 0.64 0.68 0.70 0.77 0.73 0.68 0.60 0.57 0.66 0.78 0.90 1.03 1.00 0.91 0.87 0.84 0.81 0.78 0.78 0.74 0.71 0.69 0.65
0.01 0.03 0.05 0.06 0.07 0.10 0.20 0.28 0.35 0.42 0.48 0.55 0.62 0.70 0.78 0.73 0.65 0.59 0.50 0.48 0.51 0.49 0.45 0.45 0.47 0.50 0.50 0.51 0.56 0.62 0.75 0.92 1.00 0.92 0.81 0.78 0.78 0.75 0.71 0.64 0.63 0.65 0.63
0.01 0.01 0.02 0.04 0.06 0.08 0.14 0.22 0.27 0.34 0.37 0.41 0.52 0.64 0.68 0.66 0.65 0.70 0.68 0.63 0.60 0.58 0.53 0.47 0.43 0.45 0.50 0.55 0.58 0.60 0.67 0.77 0.81 0.79 0.72 0.68 0.70 0.74 0.72 0.63 0.55 0.53 0.51
0.06 0.03 0.02 0.03 0.06 0.08 0.11 0.13 0.13 0.16 0.16 0.20 0.25 0.30 0.34 0.37 0.39 0.38 0.45 0.51 0.51 0.49 0.60 0.65 0.61 0.64 0.63 0.61 0.62 0.56 0.52 0.56 0.65 0.69 0.67 0.61 0.59 0.62 0.67 0.64 0.59 0.55 0.50
0.14 0.11 0.07 0.05 0.05 0.06 0.07 0.10 0.11 0.07 0.05 0.07 0.08 0.14 0.20 0.21 0.22 0.22 0.25 0.33 0.40 0.46 0.61 0.63 0.56 0.50 0.49 0.47 0.49 0.49 0.47 0.46 0.48 0.55 0.57 0.58 0.54 0.56 0.64 0.66 0.62 0.59 0.55
0.03 0.03 0.05 0.08 0.05 0.04 0.07 0.13 0.19 0.21 0.15 0.08 0.04 0.06 0.11 0.14 0.16 0.18 0.20 0.25 0.27 0.33 0.42 0.49 0.45 0.40 0.35 0.34 0.33 0.31 0.33 0.37 0.39 0.42 0.47 0.49 0.51 0.53 0.57 0.63 0.66 0.62 0.58
0.01 0.03 0.09 0.10 0.06 0.05 0.10 0.18 0.20 0.19 0.18 0.12 0.06 0.03 0.04 0.06 0.08 0.10 0.13 0.19 0.19 0.17 0.20 0.28 0.31 0.30 0.26 0.21 0.17 0.16 0.16 0.18 0.22 0.28 0.34 0.39 0.42 0.46 0.50 0.54 0.56 0.59 0.60
0.02 0.02 0.09 0.14 0.08 0.08 0.10 0.10 0.10 0.12 0.10 0.07 0.06 0.05 0.04 0.06 0.07 0.05 0.05 0.08 0.09 0.09 0.11 0.15 0.18 0.19 0.17 0.16 0.13 0.10 0.11 0.13 0.14 0.17 0.22 0.29 0.32 0.33 0.36 0.42 0.47 0.49 0.48
0.06 0.03 0.03 0.14 0.17 0.14 0.12 0.10 0.11 0.13 0.09 0.05 0.03 0.01 0.02 0.05 0.07 0.07 0.05 0.06 0.07 0.09 0.09 0.10 0.11 0.15 0.14 0.12 0.11 0.11 0.11 0.11 0.10 0.13 0.15 0.18 0.21 0.23 0.25 0.26 0.28 0.33 0.37
0.02 0.03 0.04 0.13 0.18 0.14 0.11 0.11 0.12 0.10 0.08 0.05 0.03 0.01 0.02 0.04 0.05 0.06 0.05 0.06 0.08 0.09 0.08 0.07 0.09 0.12 0.13 0.11 0.10 0.11 0.12 0.10 0.09 0.10 0.13 0.16 0.16 0.16 0.16 0.17 0.18 0.20 0.21
0.01 0.02 0.03 0.07 0.08 0.04 0.05 0.08 0.09 0.09 0.06 0.04 0.03 0.02 0.03 0.04 0.04 0.04 0.05 0.08 0.11 0.11 0.09 0.07 0.09 0.13 0.15 0.15 0.13 0.13 0.13 0.13 0.11 0.10 0.11 0.14 0.16 0.17 0.16 0.15 0.16 0.18 0.20
0.01 0.01 0.02 0.04 0.04 0.05 0.08 0.09 0.07 0.06 0.06 0.04 0.03 0.04 0.04 0.05 0.05 0.04 0.05 0.08 0.11 0.12 0.09 0.08 0.09 0.10 0.14 0.17 0.18 0.17 0.15 0.14 0.11 0.09 0.09 0.10 0.12 0.14 0.15 0.15 0.17 0.19 0.21
0.02 0.01 0.02 0.03 0.04 0.05 0.05 0.07 0.07 0.06 0.07 0.06 0.05 0.04 0.04 0.05 0.06 0.05 0.04 0.05 0.07 0.07 0.07 0.07 0.09 0.13 0.16 0.17 0.18 0.20 0.25 0.23 0.17 0.12 0.10 0.10 0.11 0.13 0.15 0.17 0.20 0.23 0.26
0.02 0.01 0.02 0.04 0.05 0.06 0.06 0.07 0.06 0.06 0.07 0.07 0.06 0.06 0.07 0.07 0.06 0.05 0.05 0.05 0.05 0.06 0.08 0.09 0.10 0.14 0.16 0.17 0.15 0.16 0.18 0.16 0.15 0.14 0.11 0.10 0.11 0.13 0.16 0.19 0.22 0.27 0.31